GW4777 Weather Reports


time (UTC)temp
C
wind
direction
speed
KPH
gust
KPH
rain 1hr
cm
rain 24hr
cm
rain mn
cm
humidity
%
barometer
mb
20260506015021 12 125 0.0 1.6 0.00 0.00 0.00 65 1010.4
20260506014519 12 77 0.0 0.0 0.00 0.00 0.00 65 1010.3
20260506014015 12 78 1.6 1.6 0.00 0.00 0.00 65 1010.3
20260506013513 12 62 0.0 0.0 0.00 0.00 0.00 66 1010.1
20260506013009 12 78 0.0 1.6 0.00 0.00 0.00 66 1010.1
20260506012505 12 69 0.0 1.6 0.00 0.00 0.00 66 1010.0
20260506012002 12 76 0.0 0.0 0.00 0.00 0.00 66 1009.8
20260506011500 12 75 0.0 1.6 0.00 0.00 0.00 65 1009.9
20260506010956 12 96 0.0 1.6 0.00 0.00 0.00 65 1009.7
20260506010455 13 72 0.0 0.0 0.00 0.00 0.00 65 1009.7
20260506005951 13 72 0.0 1.6 0.00 0.00 0.00 65 1009.5
20260506005449 13 70 0.0 0.0 0.00 0.00 0.00 65 1009.4
20260506004950 13 57 0.0 0.0 0.00 0.00 0.00 65 1009.2
20260506004448 13 97 0.0 1.6 0.00 0.00 0.00 65 1009.2
20260506003944 13 56 1.6 1.6 0.00 0.00 0.00 64 1009.2
20260506003441 13 62 0.0 1.6 0.00 0.00 0.00 64 1009.1
20260506002937 13 87 0.0 0.0 0.00 0.00 0.00 64 1009.0
20260506002433 13 66 0.0 0.0 0.00 0.00 0.00 64 1009.0
20260506001928 13 76 0.0 0.0 0.00 0.00 0.00 65 1009.0
20260506001426 13 54 0.0 1.6 0.00 0.00 0.00 64 1008.9
20260506000923 13 90 0.0 1.6 0.00 0.00 0.00 64 1008.9
20260506000423 13 64 0.0 1.6 0.00 0.00 0.00 64 1008.9
20260505235917 13 85 0.0 1.6 0.00 0.00 0.00 64 1008.9
20260505235415 13 65 1.6 1.6 0.00 0.00 0.00 64 1008.7
20260505234912 13 76 0.0 0.0 0.00 0.00 0.00 63 1008.9
20260505234409 13 63 0.0 1.6 0.00 0.00 0.00 63 1008.9
20260505233906 14 134 1.6 1.6 0.00 0.00 0.00 63 1009.0
20260505233404 14 70 0.0 0.0 0.00 0.00 0.00 62 1008.6
20260505232901 15 68 0.0 1.6 0.00 0.00 0.00 62 1008.7
20260505232359 15 57 1.6 1.6 0.00 0.00 0.00 61 1008.4
20260505231855 15 66 0.0 0.0 0.00 0.00 0.00 61 1008.5
20260505231353 15 78 1.6 1.6 0.00 0.00 0.00 61 1008.5
20260505230851 15 63 1.6 1.6 0.00 0.00 0.00 61 1008.6
20260505230348 15 70 1.6 3.2 0.00 0.00 0.00 61 1008.4
20260505225844 15 101 1.6 1.6 0.00 0.00 0.00 61 1008.2
20260505225342 15 65 1.6 1.6 0.00 0.00 0.00 61 1008.8
20260505224836 15 118 0.0 1.6 0.00 0.00 0.00 61 1008.5
20260505224335 15 78 0.0 1.6 0.00 0.00 0.00 60 1008.8
20260505223831 16 76 4.8 4.8 0.00 0.00 0.00 59 1008.8
20260505223329 16 109 1.6 3.2 0.00 0.00 0.00 60 1009.0
20260505222824 16 80 1.6 1.6 0.00 0.00 0.00 59 1008.6
20260505222320 16 112 3.2 4.8 0.00 0.00 0.00 58 1009.0
20260505221818 16 96 3.2 3.2 0.00 0.00 0.00 58 1008.9
20260505221314 17 81 3.2 4.8 0.00 0.00 0.00 58 1008.8
20260505220812 17 93 1.6 3.2 0.00 0.00 0.00 58 1008.5
20260505220309 17 107 1.6 1.6 0.00 0.00 0.00 57 1008.4
20260505215807 17 85 1.6 3.2 0.00 0.00 0.00 57 1008.5
20260505215305 17 68 0.0 1.6 0.00 0.00 0.00 57 1008.7
20260505214802 18 159 0.0 1.6 0.00 0.00 0.00 56 1008.5
20260505214259 18 85 1.6 1.6 0.00 0.00 0.00 55 1008.4
20260505213756 18 89 3.2 4.8 0.00 0.00 0.00 54 1008.5
20260505213254 18 70 1.6 1.6 0.00 0.00 0.00 54 1008.6
20260505212749 18 79 4.8 6.4 0.00 0.00 0.00 53 1008.6
20260505212247 18 18 6.4 9.7 0.00 0.00 0.00 53 1008.6
20260505211743 19 91 3.2 3.2 0.00 0.00 0.00 52 1008.7
20260505211241 19 134 4.8 4.8 0.00 0.00 0.00 52 1008.6
20260505210737 19 16 4.8 6.4 0.00 0.00 0.00 51 1008.7
20260505210234 20 40 6.4 6.4 0.00 0.00 0.00 51 1008.5
20260505205731 20 59 1.6 1.6 0.00 0.00 0.00 51 1008.4
20260505205230 20 81 1.6 3.2 0.00 0.00 0.00 49 1008.5
20260505204726 20 93 3.2 3.2 0.00 0.00 0.00 49 1008.3
20260505204224 20 110 0.0 0.0 0.00 0.00 0.00 50 1008.2
20260505203721 20 130 3.2 4.8 0.00 0.00 0.00 48 1008.2
20260505203218 20 73 1.6 3.2 0.00 0.00 0.00 48 1008.3
20260505202713 20 103 1.6 3.2 0.00 0.00 0.00 48 1008.2
20260505202210 20 102 1.6 3.2 0.00 0.00 0.00 49 1008.1
20260505201706 20 66 0.0 1.6 0.00 0.00 0.00 48 1008.0
20260505201204 21 105 3.2 4.8 0.00 0.00 0.00 47 1007.8
20260505200702 20 10 3.2 3.2 0.00 0.00 0.00 48 1007.9
20260505200159 20 340 4.8 6.4 0.00 0.00 0.00 48 1008.1
20260505195654 20 27 1.6 3.2 0.00 0.00 0.00 49 1007.9
20260505195152 20 119 1.6 1.6 0.00 0.00 0.00 48 1008.2
20260505194649 20 184 3.2 4.8 0.00 0.00 0.00 49 1008.2
20260505194145 20 70 1.6 3.2 0.00 0.00 0.00 48 1008.4
20260505193642 20 159 3.2 3.2 0.00 0.00 0.00 47 1008.2
20260505193139 20 103 3.2 4.8 0.00 0.00 0.00 47 1007.8
20260505192638 20 253 6.4 9.7 0.00 0.00 0.00 47 1008.0
20260505192134 20 74 3.2 4.8 0.00 0.00 0.00 49 1008.0
20260505191633 20 112 3.2 4.8 0.00 0.00 0.00 49 1008.1
20260505191131 20 75 3.2 4.8 0.00 0.00 0.00 48 1008.0
20260505190626 20 6 8.0 11.3 0.00 0.00 0.00 48 1007.9
20260505190121 21 74 3.2 3.2 0.00 0.00 0.00 46 1007.9
20260505185618 21 185 6.4 6.4 0.00 0.00 0.00 47 1007.9
20260505185114 21 89 1.6 1.6 0.00 0.00 0.00 47 1008.1
20260505184611 21 71 1.6 1.6 0.00 0.00 0.00 46 1008.3
20260505184108 21 115 0.0 0.0 0.00 0.00 0.00 47 1008.0
20260505183605 21 120 6.4 11.3 0.00 0.00 0.00 47 1007.7
20260505183103 20 52 0.0 1.6 0.00 0.00 0.00 50 1007.7
20260505182558 20 95 3.2 3.2 0.00 0.00 0.00 51 1007.9
20260505182055 20 134 4.8 6.4 0.00 0.00 0.00 50 1007.7
20260505181552 20 66 3.2 3.2 0.00 0.00 0.00 50 1007.7
20260505181049 20 154 6.4 11.3 0.00 0.00 0.00 51 1007.9
20260505180545 20 68 3.2 4.8 0.00 0.00 0.00 50 1008.0
20260505180043 20 65 3.2 4.8 0.00 0.00 0.00 49 1008.2
20260505175543 20 81 3.2 4.8 0.00 0.00 0.00 50 1008.2
20260505175041 20 72 1.6 1.6 0.00 0.00 0.00 51 1008.3
20260505174537 20 109 3.2 6.4 0.00 0.00 0.00 51 1007.8
20260505174033 20 95 1.6 3.2 0.00 0.00 0.00 51 1007.9
20260505173530 20 124 3.2 4.8 0.00 0.00 0.00 51 1008.0
20260505173027 21 15 3.2 4.8 0.00 0.00 0.00 50 1008.0
20260505172525 20 116 0.0 1.6 0.00 0.00 0.00 52 1007.7
20260505172021 20 112 1.6 1.6 0.00 0.00 0.00 53 1007.9
20260505171516 20 323 3.2 4.8 0.00 0.00 0.00 53 1007.6
20260505171014 21 70 1.6 1.6 0.00 0.00 0.00 53 1007.0
20260505170510 21 64 4.8 4.8 0.00 0.00 0.00 53 1007.2
20260505170006 20 347 8.0 11.3 0.00 0.00 0.00 53 1007.3
20260505165502 20 104 1.6 3.2 0.00 0.00 0.00 53 1007.3
20260505164957 20 87 0.0 1.6 0.00 0.00 0.00 55 1007.2
20260505164454 20 314 3.2 9.7 0.00 0.00 0.00 55 1006.9
20260505163952 20 120 3.2 6.4 0.00 0.00 0.00 55 1006.7
20260505163450 20 82 3.2 9.7 0.00 0.00 0.00 56 1006.6
20260505162949 20 253 1.6 3.2 0.00 0.00 0.00 58 1006.7
20260505162445 20 126 0.0 1.6 0.00 0.00 0.00 58 1006.2
20260505161942 20 83 4.8 9.7 0.00 0.00 0.00 58 1006.3
20260505161438 20 94 3.2 3.2 0.00 0.00 0.00 57 1006.2
20260505160936 20 276 1.6 3.2 0.00 0.00 0.00 58 1005.8
20260505160434 20 104 3.2 4.8 0.00 0.00 0.00 58 1005.8
20260505152910 22 154 3.2 3.2 0.00 0.00 0.00 58 1005.0
20260505152408 22 327 8.0 9.7 0.00 0.00 0.00 58 1005.0
20260505151907 22 120 4.8 6.4 0.00 0.00 0.00 59 1005.2
20260505151404 22 68 6.4 12.9 0.00 0.00 0.00 57 1004.8
20260505150901 22 353 4.8 6.4 0.00 0.00 0.00 58 1004.5
20260505150359 21 87 1.6 1.6 0.00 0.00 0.00 58 1004.8
20260505140328 24 128 3.2 4.8 0.00 0.00 0.00 29 1003.5
20260505130252 21 157 1.6 1.6 0.00 0.00 0.00 58 1002.0
20260505124742 20 127 1.6 3.2 0.00 0.00 0.00 61 1001.9
20260505124239 20 195 1.6 1.6 0.00 0.00 0.00 62 1001.7
20260505123734 20 153 0.0 0.0 0.00 0.00 0.00 62 1001.6
20260505123231 20 134 0.0 0.0 0.00 0.00 0.00 62 1001.5
20260505122728 20 133 1.6 1.6 0.00 0.00 0.00 63 1001.3
20260505122225 20 141 0.0 1.6 0.00 0.00 0.00 63 1001.4
20260505121722 20 171 1.6 1.6 0.00 0.00 0.00 63 1001.3
20260505121218 20 137 0.0 1.6 0.00 0.00 0.00 63 1001.5
20260505120715 20 128 1.6 3.2 0.00 0.00 0.00 63 1001.3
20260505120211 20 153 0.0 1.6 0.00 0.00 0.00 62 1001.3
20260505115704 20 85 1.6 1.6 0.00 0.00 0.00 62 1001.4
20260505115202 20 210 3.2 3.2 0.00 0.00 0.00 61 1001.4
20260505114659 21 145 1.6 3.2 0.00 0.00 0.00 61 1001.1
20260505114155 21 141 1.6 1.6 0.00 0.00 0.00 60 1000.8
20260505113652 21 140 1.6 1.6 0.00 0.00 0.00 60 1000.8
20260505113149 21 204 3.2 4.8 0.00 0.00 0.00 60 1000.6
20260505112645 21 282 1.6 3.2 0.00 0.00 0.00 60 1000.5
20260505112144 21 168 1.6 1.6 0.00 0.00 0.00 60 1000.5
20260505111643 21 138 1.6 1.6 0.00 0.00 0.00 60 1000.6
20260505111139 21 133 1.6 1.6 0.00 0.00 0.00 60 1000.5
20260505110635 21 107 1.6 1.6 0.00 0.00 0.00 60 1000.5
20260505110132 21 123 1.6 1.6 0.00 0.00 0.00 61 1000.6
20260505102108 20 184 1.6 1.6 0.00 0.00 0.00 62 1000.2
20260505101606 21 148 1.6 1.6 0.00 0.00 0.00 62 1000.4
20260505101102 21 114 0.0 0.0 0.00 0.00 0.00 62 1000.1
20260505100559 21 139 1.6 1.6 0.00 0.00 0.00 61 1000.4
20260505100056 21 127 1.6 1.6 0.00 0.00 0.00 61 1000.1
20260505095552 21 156 1.6 1.6 0.00 0.00 0.00 61 1000.1
20260505095049 21 238 3.2 3.2 0.00 0.00 0.00 61 1000.1
20260505094545 21 216 1.6 3.2 0.00 0.00 0.00 61 1000.3
20260505094041 21 137 0.0 0.0 0.00 0.00 0.00 60 1000.0
20260505093538 21 103 1.6 3.2 0.00 0.00 0.00 60 999.9
20260505093036 21 153 3.2 4.8 0.00 0.00 0.00 59 1000.0
20260505092533 21 130 1.6 3.2 0.00 0.00 0.00 59 1000.1
20260505092031 21 209 1.6 3.2 0.00 0.00 0.00 59 999.9
20260505091527 21 186 1.6 3.2 0.00 0.00 0.00 58 1000.2
20260505091026 21 171 1.6 1.6 0.00 0.00 0.00 58 1000.2
20260505090524 21 111 3.2 3.2 0.00 0.00 0.00 58 1000.4
20260505090021 22 140 1.6 3.2 0.00 0.00 0.00 58 1000.3
20260505085519 22 131 0.0 1.6 0.00 0.00 0.00 58 1000.4
20260505085017 22 210 0.0 0.0 0.00 0.00 0.00 58 1000.3
20260505084515 22 155 0.0 1.6 0.00 0.00 0.00 57 1000.4
20260505084013 22 303 0.0 1.6 0.00 0.00 0.00 57 1000.4
20260505083509 22 161 1.6 1.6 0.00 0.00 0.00 57 1000.4
20260505083006 22 91 1.6 1.6 0.00 0.00 0.00 57 1000.3
20260505082502 22 127 0.0 1.6 0.00 0.00 0.00 57 1000.4
20260505081959 22 156 3.2 3.2 0.00 0.00 0.00 57 1000.3
20260505081455 22 177 0.0 1.6 0.00 0.00 0.00 57 1000.2
20260505080952 22 139 1.6 3.2 0.00 0.00 0.00 57 1000.3
20260505080448 22 232 1.6 4.8 0.00 0.00 0.00 57 1000.4
20260505075943 22 123 0.0 0.0 0.00 0.00 0.00 57 1000.4
20260505075440 22 132 1.6 3.2 0.00 0.00 0.00 57 1000.5
20260505074938 22 194 1.6 3.2 0.00 0.00 0.00 57 1000.5
20260505074436 22 73 1.6 1.6 0.00 0.00 0.00 58 1000.5
20260505073932 22 133 4.8 4.8 0.00 0.00 0.00 57 1000.6
20260505073430 22 201 3.2 4.8 0.00 0.00 0.00 58 1000.5
20260505072927 21 176 3.2 3.2 0.00 0.00 0.00 58 1000.7
20260505072423 22 127 0.0 1.6 0.00 0.00 0.00 58 1000.7
20260505071919 22 157 3.2 3.2 0.00 0.00 0.00 59 1000.7
20260505071416 22 203 1.6 3.2 0.00 0.00 0.00 59 1001.0
20260505070914 22 166 1.6 3.2 0.00 0.00 0.00 59 1000.7
20260505070410 22 107 3.2 3.2 0.00 0.00 0.00 59 1000.9
20260505065905 22 132 3.2 3.2 0.00 0.00 0.00 58 1000.9
20260505065402 22 162 3.2 4.8 0.00 0.00 0.00 58 1001.0
20260505064859 22 170 1.6 3.2 0.00 0.00 0.00 59 1000.9
20260505064356 22 175 0.0 1.6 0.00 0.00 0.00 59 1001.3
20260505063855 22 131 3.2 4.8 0.00 0.00 0.00 59 1001.1
20260505063355 22 113 1.6 1.6 0.00 0.00 0.00 60 1001.4
20260505062852 22 183 1.6 1.6 0.00 0.00 0.00 60 1001.3
20260505062349 22 145 1.6 1.6 0.00 0.00 0.00 60 1001.3
20260505061846 22 237 3.2 4.8 0.00 0.00 0.00 60 1001.3
20260505061344 22 221 3.2 4.8 0.00 0.00 0.00 60 1001.4
20260505060842 22 146 3.2 6.4 0.00 0.00 0.00 61 1001.4
20260505060338 23 238 3.2 3.2 0.00 0.00 0.00 60 1001.4
20260505055834 23 139 1.6 1.6 0.00 0.00 0.00 60 1001.5
20260505055330 23 152 4.8 11.3 0.00 0.00 0.00 60 1001.5
20260505054828 23 136 0.0 1.6 0.00 0.00 0.00 60 1001.3
20260505054325 23 143 1.6 1.6 0.00 0.00 0.00 60 1001.4
20260505053823 23 121 1.6 1.6 0.00 0.00 0.00 61 1001.3
20260505053320 23 135 1.6 1.6 0.00 0.00 0.00 61 1001.4
20260505052816 23 165 3.2 3.2 0.00 0.00 0.00 61 1001.4
20260505052314 23 218 4.8 4.8 0.00 0.00 0.00 61 1001.5
20260505051810 23 114 3.2 3.2 0.00 0.00 0.00 60 1001.7
20260505051308 23 160 0.0 0.0 0.00 0.00 0.00 59 1001.8
20260505050806 23 165 1.6 3.2 0.00 0.00 0.00 59 1001.5
20260505050305 23 66 1.6 1.6 0.00 0.00 0.00 59 1001.5
20260505041734 25 168 1.6 3.2 0.00 0.00 0.00 58 1001.7
20260505041231 25 101 1.6 3.2 0.00 0.00 0.00 58 1001.9
20260505040729 25 204 1.6 1.6 0.00 0.00 0.00 58 1001.8
20260505040226 25 168 1.6 1.6 0.00 0.00 0.00 58 1001.7
20260505035723 25 154 1.6 1.6 0.00 0.00 0.00 58 1001.9
20260505035218 25 145 3.2 3.2 0.00 0.00 0.00 58 1002.0
20260505034715 25 193 1.6 3.2 0.00 0.00 0.00 58 1002.1
20260505034212 25 133 3.2 4.8 0.00 0.00 0.00 57 1001.7
20260505033708 25 138 1.6 1.6 0.00 0.00 0.00 57 1001.8
20260505033207 25 164 1.6 3.2 0.00 0.00 0.00 57 1001.8
20260505032704 25 171 1.6 1.6 0.00 0.00 0.00 57 1001.7
20260505032200 25 146 6.4 9.7 0.00 0.00 0.00 57 1001.7
20260505031658 25 154 3.2 3.2 0.00 0.00 0.00 57 1001.7
20260505031154 25 136 1.6 3.2 0.00 0.00 0.00 57 1001.7
20260505030651 25 221 3.2 3.2 0.00 0.00 0.00 56 1001.7
20260505030147 25 159 1.6 3.2 0.00 0.00 0.00 56 1001.6
20260505025643 25 136 3.2 3.2 0.00 0.00 0.00 56 1001.7
20260505025142 25 37 3.2 6.4 0.00 0.00 0.00 56 1001.7
20260505024639 25 223 4.8 6.4 0.00 0.00 0.00 55 1001.6
20260505024136 26 131 3.2 3.2 0.00 0.00 0.00 55 1001.7
20260505023633 26 173 3.2 4.8 0.00 0.00 0.00 54 1001.7
20260505023131 26 154 1.6 1.6 0.00 0.00 0.00 54 1001.7
20260505022628 26 148 1.6 3.2 0.00 0.00 0.00 53 1001.7
20260505022125 26 166 1.6 3.2 0.00 0.00 0.00 53 1001.7
20260505021621 26 190 3.2 3.2 0.00 0.00 0.00 52 1001.5
20260505021118 26 175 4.8 6.4 0.00 0.00 0.00 52 1001.6
20260505020614 26 175 3.2 3.2 0.00 0.00 0.00 51 1001.5
20260505020110 27 161 3.2 6.4 0.00 0.00 0.00 50 1001.5
20260505015607 27 140 3.2 3.2 0.00 0.00 0.00 49 1001.3